GOES 17 (43226 NORAD) Tracking and Keplerian Element Data

This shows tracking and keplerian element data for the satellite.

Feedback or suggestion? Click here.




ElementValue
Catalog43226
NameGOES 17
Epoch Orbit2542
Epoch Day34.66280944
Epoch Year2025
RAAN296.2454
Inclination0.0073
Eccentricity0.0003258
Argument of Perigee345.0784
Mean Anonmoly346.6597
Mean Motion1.00272226
Decay Rate-8.6E-07
L11 43226U 18022A 25034.66280944 -.00000086 00000+0 00000+0 0 9996
L22 43226 0.0073 296.2454 0003258 345.0784 346.6597 1.00272226 25425



Live tracking and technical data element details for GOES 17 (NORAD 43226). GOES 17 can be tracked NOW for your location showing map with azimuth and elevation plus other details from your city location.







IsCatalogInMostPopularTable: catalog: 43226, numindb: 1073
Update: records affected: 1



GetName: 43226 GOES 17

Hit Count: updated at: Thu, 10 Jul 2025 23:18:29 GMT